Terug naar catalogus

COSMOS 768

ActiefMilitairLEO
NORAD 8292·PAYLOAD·🇷🇺 Russia

Gelanceerd Sep 17, 1975 vanaf Plesetsk Cosmodrome

Loading…

Volgende Passages (komende 24 uur)

TLE

VersSource: Space-Track

Epoch: Sep 14, 2026, 05:32 UTC

1 08292U 75086H   26257.23088302 -.00000005  00000-0  74824-4 0  9990
2 08292  74.0140 356.0877 0012607 161.8167 222.0991 12.46116213319590

Volg COSMOS 768 in realtime met AllMySat

Download on the App Store